Location: Aultman
(40.9284°N, 81.4173°W)
Time: 09:33:15
(UTC+00:00)

Meteor 2-10 Rocket - Pass Details

Date: 24 January 2021
Orbit: 733 x 885 km, 81.2° (Epoch: 02 March)

Event Time Altitude Azimuth Distance (km) Brightness Sun altitude
Rises 23:34:59 0° 345° (NNW) 3,363 6.8 -11.8°
Reaches altitude 10° 23:37:28 10° 341° (NNW) 2,402 6.1 -12.2°
Maximum altitude 23:42:43 54° 266° (W) 950 4.4 -13.2°
Drops below altitude 10° 23:47:44 10° 189° (S) 2,292 6.3 -14.1°
Sets 23:50:04 0° 185° (S) 3,194 7.0 -14.5°
